When you browse on this site, cookies collect data to enhance your experience and personalize the content and advertising you see.
Visit our Privacy Policy to learn more. By continuing to use the site, you agree to this use of cookies and data.
  • In Austria
  • List of Countries
  • For 7 days
  • Water Temperature
  • Weather Map
  • News
  • Weather Widgets
  • user-avatar
    Login

    Hourly Weather La Paz

    Today, 24 October, Thursday

    Time Temperature Precipitation Wind Pressure Humidity
    00:00 +7°C° 0 mm 1 mps 473 mmHg 77%
    01:00 +6°C° 0 mm 0 mps 472 mmHg 78%
    02:00 +5°C° 0 mm 0 mps 472 mmHg 80%
    03:00 +5°C° 0 mm 0 mps 472 mmHg 81%
    04:00 +5°C° 0 mm 0 mps 471 mmHg 83%
    05:00 +6°C° 0 mm 0 mps 473 mmHg 76%
    06:00 +7°C° 0 mm 0 mps 474 mmHg 69%
    07:00 +9°C° 0 mm 1 mps 475 mmHg 63%
    08:00 +11°C° 0 mm 1 mps 476 mmHg 57%
    09:00 +12°C° 0 mm 2 mps 477 mmHg 51%
    10:00 +14°C° 0 mm 2 mps 477 mmHg 45%
    11:00 +13°C° 0.2 mm 3 mps 477 mmHg 45%
    12:00 +14°C° 0.2 mm 3 mps 477 mmHg 44%
    13:00 +14°C° 0.2 mm 4 mps 477 mmHg 44%
    14:00 +14°C° 0.3 mm 4 mps 476 mmHg 46%
    15:00 +13°C° 0.3 mm 3 mps 475 mmHg 48%
    16:00 +12°C° 0.3 mm 3 mps 475 mmHg 50%
    17:00 +11°C° 0.1 mm 3 mps 475 mmHg 53%
    18:00 +10°C° 0.1 mm 2 mps 475 mmHg 56%
    19:00 +9°C° 0.1 mm 2 mps 474 mmHg 59%
    20:00 +9°C° 0 mm 2 mps 474 mmHg 60%
    21:00 +10°C° 0 mm 1 mps 474 mmHg 62%
    22:00 +9°C° 0 mm 1 mps 474 mmHg 64%
    23:00 +9°C° 0 mm 1 mps 474 mmHg 67%

    Tomorrow, 25 October, Friday

    Time Temperature Precipitation Wind Pressure Humidity
    00:00 +8°C° 0 mm 1 mps 473 mmHg 70%
    01:00 +7°C° 0 mm 1 mps 473 mmHg 74%
    02:00 +7°C° 0 mm 1 mps 472 mmHg 75%
    03:00 +6°C° 0 mm 0 mps 472 mmHg 76%
    04:00 +5°C° 0 mm 0 mps 472 mmHg 78%
    05:00 +6°C° 0 mm 0 mps 473 mmHg 70%
    06:00 +8°C° 0 mm 0 mps 474 mmHg 63%
    07:00 +10°C° 0 mm 1 mps 476 mmHg 56%
    08:00 +12°C° 0.1 mm 1 mps 477 mmHg 51%
    09:00 +13°C° 0.1 mm 2 mps 477 mmHg 47%
    10:00 +14°C° 0.1 mm 3 mps 478 mmHg 42%
    11:00 +14°C° 0.1 mm 3 mps 478 mmHg 43%
    12:00 +14°C° 0.1 mm 4 mps 477 mmHg 43%
    13:00 +14°C° 0.1 mm 5 mps 477 mmHg 43%
    14:00 +13°C° 0.2 mm 4 mps 476 mmHg 46%
    15:00 +12°C° 0.2 mm 4 mps 475 mmHg 49%
    16:00 +11°C° 0.2 mm 3 mps 475 mmHg 52%
    17:00 +11°C° 0.1 mm 3 mps 475 mmHg 55%
    18:00 +10°C° 0.1 mm 2 mps 474 mmHg 57%
    19:00 +9°C° 0.1 mm 2 mps 474 mmHg 60%
    20:00 +8°C° 0 mm 2 mps 475 mmHg 60%
    21:00 +8°C° 0 mm 2 mps 475 mmHg 61%
    22:00 +9°C° 0 mm 1 mps 475 mmHg 61%
    23:00 +8°C° 0 mm 1 mps 474 mmHg 65%

    Day after tomorrow, 26 October, Saturday

    Time Temperature Precipitation Wind Pressure Humidity
    00:00 +8°C° 0 mm 1 mps 474 mmHg 69%
    01:00 +7°C° 0 mm 1 mps 473 mmHg 73%
    02:00 +7°C° 0 mm 1 mps 473 mmHg 75%
    03:00 +7°C° 0 mm 1 mps 473 mmHg 78%
    04:00 +6°C° 0 mm 1 mps 473 mmHg 81%
    05:00 +7°C° 0 mm 1 mps 473 mmHg 76%
    06:00 +8°C° 0 mm 1 mps 474 mmHg 70%
    07:00 +9°C° 0 mm 1 mps 475 mmHg 65%
    08:00 +11°C° 0 mm 1 mps 476 mmHg 59%
    09:00 +13°C° 0 mm 2 mps 477 mmHg 53%
    10:00 +14°C° 0 mm 2 mps 478 mmHg 47%
    11:00 +15°C° 0.2 mm 2 mps 478 mmHg 46%
    12:00 +14°C° 0.2 mm 3 mps 477 mmHg 46%
    13:00 +16°C° 0.2 mm 3 mps 477 mmHg 45%
    14:00 +14°C° 0.2 mm 4 mps 476 mmHg 47%
    15:00 +14°C° 0.2 mm 4 mps 476 mmHg 50%
    16:00 +13°C° 0.2 mm 4 mps 475 mmHg 52%
    17:00 +12°C° 0 mm 4 mps 475 mmHg 57%
    18:00 +11°C° 0 mm 3 mps 474 mmHg 62%
    19:00 +9°C° 0 mm 3 mps 474 mmHg 67%
    20:00 +9°C° 0 mm 2 mps 474 mmHg 67%
    21:00 +10°C° 0 mm 1 mps 474 mmHg 68%
    22:00 +9°C° 0 mm 1 mps 474 mmHg 68%
    23:00 +9°C° 0 mm 1 mps 474 mmHg 69%

    27 October, Sunday

    Time Temperature Precipitation Wind Pressure Humidity
    00:00 +9°C° 0 mm 1 mps 473 mmHg 70%
    01:00 +7°C° 0 mm 0 mps 473 mmHg 70%
    02:00 +8°C° 0 mm 1 mps 472 mmHg 71%
    03:00 +8°C° 0 mm 1 mps 472 mmHg 73%
    04:00 +7°C° 0 mm 1 mps 472 mmHg 74%
    05:00 +8°C° 0 mm 0 mps 474 mmHg 66%
    06:00 +9°C° 0 mm 0 mps 475 mmHg 57%
    07:00 +11°C° 0 mm 0 mps 476 mmHg 49%
    08:00 +13°C° 0 mm 1 mps 477 mmHg 44%
    09:00 +15°C° 0 mm 2 mps 478 mmHg 39%
    10:00 +17°C° 0 mm 3 mps 479 mmHg 35%
    11:00 +17°C° 0.1 mm 4 mps 478 mmHg 36%
    12:00 +17°C° 0.1 mm 4 mps 478 mmHg 37%
    13:00 +17°C° 0.1 mm 4 mps 477 mmHg 38%
    14:00 +17°C° 0.1 mm 4 mps 477 mmHg 40%
    15:00 +15°C° 0.1 mm 4 mps 476 mmHg 42%
    16:00 +15°C° 0.1 mm 4 mps 475 mmHg 43%
    17:00 +13°C° 0 mm 4 mps 475 mmHg 52%
    18:00 +12°C° 0 mm 4 mps 474 mmHg 61%
    19:00 +10°C° 0 mm 3 mps 473 mmHg 70%
    20:00 +9°C° 0 mm 3 mps 473 mmHg 72%
    21:00 +9°C° 0 mm 2 mps 473 mmHg 74%
    22:00 +8°C° 0 mm 2 mps 473 mmHg 76%
    23:00 +9°C° 0 mm 1 mps 473 mmHg 76%

    28 October, Monday

    Time Temperature Precipitation Wind Pressure Humidity
    00:00 +8°C° 0 mm 1 mps 473 mmHg 77%
    01:00 +8°C° 0 mm 1 mps 472 mmHg 78%
    02:00 +8°C° 0 mm 1 mps 472 mmHg 76%
    03:00 +7°C° 0 mm 1 mps 472 mmHg 75%
    04:00 +7°C° 0 mm 1 mps 471 mmHg 74%
    05:00 +9°C° 0 mm 1 mps 473 mmHg 66%
    06:00 +9°C° 0 mm 0 mps 474 mmHg 57%
    07:00 +11°C° 0 mm 0 mps 475 mmHg 49%
    08:00 +13°C° 0 mm 1 mps 476 mmHg 44%
    09:00 +15°C° 0 mm 1 mps 477 mmHg 39%
    10:00 +17°C° 0 mm 2 mps 478 mmHg 34%
    11:00 +17°C° 0.1 mm 3 mps 478 mmHg 36%
    12:00 +17°C° 0.1 mm 3 mps 477 mmHg 38%
    13:00 +18°C° 0.1 mm 4 mps 477 mmHg 40%
    14:00 +17°C° 0.1 mm 4 mps 476 mmHg 43%
    15:00 +15°C° 0.1 mm 4 mps 476 mmHg 47%
    16:00 +14°C° 0.1 mm 4 mps 475 mmHg 50%
    17:00 +13°C° 0.1 mm 4 mps 474 mmHg 56%
    18:00 +11°C° 0.1 mm 4 mps 474 mmHg 62%
    19:00 +10°C° 0.1 mm 3 mps 473 mmHg 68%
    20:00 +9°C° 0 mm 3 mps 474 mmHg 66%
    21:00 +9°C° 0 mm 2 mps 474 mmHg 65%
    22:00 +10°C° 0 mm 1 mps 474 mmHg 63%
    23:00 +9°C° 0 mm 1 mps 473 mmHg 64%

    29 October, Tuesday

    Time Temperature Precipitation Wind Pressure Humidity
    00:00 +9°C° 0 mm 1 mps 473 mmHg 66%
    01:00 +9°C° 0 mm 1 mps 472 mmHg 67%
    02:00 +8°C° 0 mm 1 mps 472 mmHg 66%
    03:00 +7°C° 0 mm 0 mps 471 mmHg 65%
    04:00 +6°C° 0 mm 0 mps 471 mmHg 64%
    05:00 +8°C° 0 mm 0 mps 473 mmHg 57%
    06:00 +10°C° 0 mm 0 mps 474 mmHg 49%
    07:00 +12°C° 0 mm 0 mps 476 mmHg 41%
    08:00 +14°C° 0 mm 1 mps 476 mmHg 37%
    09:00 +16°C° 0 mm 2 mps 477 mmHg 32%
    10:00 +17°C° 0 mm 2 mps 478 mmHg 28%
    11:00 +17°C° 0.1 mm 3 mps 477 mmHg 31%
    12:00 +18°C° 0.1 mm 4 mps 477 mmHg 34%
    13:00 +17°C° 0.1 mm 5 mps 477 mmHg 36%
    14:00 +16°C° 0.1 mm 5 mps 476 mmHg 39%
    15:00 +15°C° 0.1 mm 5 mps 475 mmHg 42%
    16:00 +14°C° 0.1 mm 5 mps 475 mmHg 46%
    17:00 +13°C° 0.1 mm 4 mps 474 mmHg 49%
    18:00 +11°C° 0.1 mm 3 mps 474 mmHg 53%
    19:00 +10°C° 0.1 mm 2 mps 474 mmHg 57%
    20:00 +10°C° 0 mm 2 mps 474 mmHg 57%
    21:00 +11°C° 0 mm 1 mps 474 mmHg 56%
    22:00 +10°C° 0 mm 1 mps 475 mmHg 56%
    23:00 +10°C° 0 mm 1 mps 474 mmHg 60%

    30 October, Wednesday

    Time Temperature Precipitation Wind Pressure Humidity
    00:00 +9°C° 0 mm 1 mps 473 mmHg 64%
    01:00 +9°C° 0 mm 1 mps 473 mmHg 67%
    02:00 +8°C° 0 mm 1 mps 472 mmHg 70%
    03:00 +8°C° 0 mm 1 mps 472 mmHg 73%
    04:00 +7°C° 0 mm 1 mps 472 mmHg 75%
    05:00 +9°C° 0 mm 1 mps 473 mmHg 69%
    06:00 +10°C° 0 mm 1 mps 474 mmHg 63%
    07:00 +11°C° 0 mm 1 mps 476 mmHg 56%
    08:00 +13°C° 0 mm 2 mps 476 mmHg 50%
    09:00 +15°C° 0 mm 2 mps 477 mmHg 43%
    10:00 +16°C° 0 mm 3 mps 478 mmHg 36%
    11:00 +17°C° 0 mm 4 mps 478 mmHg 35%
    12:00 +17°C° 0 mm 4 mps 478 mmHg 33%
    13:00 +17°C° 0 mm 5 mps 477 mmHg 32%
    14:00 +16°C° 0.1 mm 5 mps 477 mmHg 34%
    15:00 +15°C° 0.1 mm 5 mps 476 mmHg 37%
    16:00 +14°C° 0.1 mm 5 mps 475 mmHg 40%
    17:00 +13°C° 0 mm 4 mps 475 mmHg 46%
    18:00 +11°C° 0 mm 3 mps 475 mmHg 52%
    19:00 +10°C° 0 mm 2 mps 474 mmHg 57%
    Show more